Location: Grasslands National Park East Block
(49.0708°N, 106.5295°W)
Time: 01:41:54
(UTC-06:00)

Vanguard 1 - Pass Details

Date: 26 September 2019
Orbit: 653 x 3830 km, 34.2° (Epoch: 20 October)

Event Time Altitude Azimuth Distance (km) Brightness Sun altitude
Rises 22:20:09 0° 177° (S) 6,650 - -31.8°
Reaches altitude 10° 22:27:08 10° 159° (SSE) 6,183 - -32.6°
Maximum altitude 22:37:38 17° 127° (SE) 6,164 - -33.8°
Drops below altitude 10° 22:49:09 10° 97° (E) 6,937 - -35.1°
Exits shadow 22:52:27 - 90° (E) 7,261 14.1 -35.5°
Sets 22:57:43 0° 81° (E) 7,845 14.4 -36.0°
